User: anonymous   Login
Location: Coleman
(45.0650°N, 88.0340°W)
Time: 23:56:44
(UTC-06:00)
Language:

Iridium 97 - Orbit

View from above orbital plane
View from above orbital plane
View from above satellite
View from above satellite

Ground track
Ground track

The orbit data is extracted from the following two-line orbital elements,

1 27450U 02031A   18055.51955712 -.00000066  00000-0 -30524-4 0  9990
2 27450  86.3975 213.4169 0001819  88.6470 271.4934 14.34211216826399
Epoch (UTC): 24 February 2018 12:28:09
Eccentricity: 0.0001819
inclination: 86.3975°
perigee height: 776 km
apogee height: 779 km
right ascension of ascending node: 213.4169°
argument of perigee: 88.6470°
revolutions per day: 14.34211216
mean anomaly at epoch: 271.4934°
orbit number at epoch: 82639

The dashed part of the orbit path shows where the satellite is in the earth's shadow,  

DLR